JNA691F RKSI-RKSS

Flight info

Callsign JNA691F
Flight time 0h 39m
Altitude 8000
Route SEL2A SEL
Aircraft B738/M-SDE2E3FGHIRWXY/LB1

Departure

Time 2026-05-04 13:43
Airport Incheon International Airport (RKSI)

Arrival

Time 2026-05-04 14:22
Airport Gimpo International Airport (RKSS)
Time Latitude Longitude Altitude Speed Heading
2026-05-04 13:28 37.45782 126.44682 32 ft 0 kts 145°
2026-05-04 13:34 37.45792 126.44674 32 ft 4 kts 138°
2026-05-04 13:34 37.45811 126.44653 29 ft 2 kts 144°
2026-05-04 13:35 37.45828 126.44636 32 ft 4 kts 134°
2026-05-04 13:35 37.45831 126.44586 30 ft 4 kts 54°
2026-05-04 13:35 37.45827 126.44578 28 ft 0 kts 54°
2026-05-04 13:37 37.45851 126.44621 30 ft 16 kts 54°
2026-05-04 13:38 37.45946 126.44783 29 ft 27 kts 55°
2026-05-04 13:38 37.46021 126.44925 32 ft 19 kts 62°
2026-05-04 13:38 37.46069 126.45081 32 ft 19 kts 110°
2026-05-04 13:38 37.45960 126.45193 32 ft 22 kts 145°
2026-05-04 13:39 37.45809 126.45325 31 ft 24 kts 146°
2026-05-04 13:39 37.45672 126.45451 32 ft 24 kts 147°
2026-05-04 13:39 37.45539 126.45565 30 ft 23 kts 144°
2026-05-04 13:39 37.45414 126.45678 32 ft 22 kts 144°
2026-05-04 13:40 37.45312 126.45769 32 ft 13 kts 144°
2026-05-04 13:40 37.45313 126.45870 32 ft 13 kts 58°
2026-05-04 13:40 37.45371 126.45973 32 ft 16 kts 52°
2026-05-04 13:40 37.45460 126.46048 32 ft 10 kts 343°
2026-05-04 13:41 37.45488 126.46029 30 ft 0 kts 326°
2026-05-04 13:42 37.45491 126.46026 31 ft 4 kts 326°
2026-05-04 13:42 37.45651 126.45882 31 ft 71 kts 324°
2026-05-04 13:42 37.46298 126.45305 91 ft 151 kts 323°
2026-05-04 13:43 37.47281 126.44464 658 ft 187 kts 324°
2026-05-04 13:43 37.48422 126.43495 1478 ft 201 kts 323°
2026-05-04 13:43 37.49582 126.42471 2303 ft 207 kts 322°
2026-05-04 13:43 37.50828 126.41343 2793 ft 237 kts 322°
2026-05-04 13:44 37.52225 126.40094 3610 ft 249 kts 323°
2026-05-04 13:44 37.53651 126.38831 4680 ft 253 kts 323°
2026-05-04 13:44 37.55092 126.37558 5713 ft 258 kts 323°
2026-05-04 13:44 37.56560 126.36208 6742 ft 263 kts 317°
2026-05-04 13:45 37.57584 126.34299 7583 ft 268 kts 291°
2026-05-04 13:45 37.57814 126.31966 7933 ft 273 kts 264°
2026-05-04 13:45 37.57180 126.29725 7989 ft 277 kts 238°
2026-05-04 13:45 37.55766 126.28067 8003 ft 282 kts 211°
2026-05-04 13:46 37.53928 126.27282 8007 ft 285 kts 193°
2026-05-04 13:46 37.51975 126.26811 8007 ft 286 kts 192°
2026-05-04 13:46 37.50015 126.26371 7994 ft 286 kts 191°
2026-05-04 13:46 37.48052 126.25938 7992 ft 286 kts 192°
2026-05-04 13:47 37.46090 126.25501 8002 ft 286 kts 191°
2026-05-04 13:47 37.44111 126.25611 7990 ft 289 kts 162°
2026-05-04 13:47 37.42452 126.26998 8003 ft 290 kts 129°
2026-05-04 13:47 37.41459 126.29191 8010 ft 289 kts 113°
2026-05-04 13:48 37.40677 126.31526 7998 ft 290 kts 111°
2026-05-04 13:48 37.39921 126.33873 7992 ft 290 kts 111°
2026-05-04 13:48 37.39169 126.36230 7992 ft 290 kts 111°
2026-05-04 13:48 37.38420 126.38583 7994 ft 290 kts 111°
2026-05-04 13:49 37.37680 126.40914 7996 ft 290 kts 111°
2026-05-04 13:49 37.36934 126.43267 7991 ft 290 kts 111°
2026-05-04 13:49 37.36189 126.45619 8003 ft 290 kts 111°
2026-05-04 13:49 37.35443 126.47975 8001 ft 290 kts 111°
2026-05-04 13:50 37.34696 126.50337 8001 ft 290 kts 111°
2026-05-04 13:50 37.33958 126.52665 7995 ft 290 kts 111°
2026-05-04 13:50 37.33205 126.55035 7996 ft 290 kts 111°
2026-05-04 13:50 37.32457 126.57389 7990 ft 290 kts 111°
2026-05-04 13:51 37.31710 126.59742 7987 ft 290 kts 111°
2026-05-04 13:51 37.30962 126.62096 7990 ft 290 kts 111°
2026-05-04 13:51 37.30214 126.64452 7990 ft 290 kts 111°
2026-05-04 13:51 37.29466 126.66808 7987 ft 290 kts 111°
2026-05-04 13:52 37.27977 126.71491 7991 ft 290 kts 111°
2026-05-04 13:52 37.27228 126.73848 7989 ft 290 kts 111°
2026-05-04 13:52 37.26478 126.76202 7992 ft 290 kts 111°
2026-05-04 13:53 37.25728 126.78558 7991 ft 290 kts 110°
2026-05-04 13:53 37.25366 126.80978 7967 ft 280 kts 82°
2026-05-04 13:53 37.26021 126.83148 7986 ft 250 kts 53°
2026-05-04 13:54 37.27903 126.86389 7328 ft 226 kts 51°
2026-05-04 13:54 37.28830 126.87988 6755 ft 224 kts 51°
2026-05-04 13:54 37.30589 126.91043 6053 ft 201 kts 51°
2026-05-04 13:55 37.31370 126.92415 5993 ft 188 kts 51°
2026-05-04 13:55 37.33334 126.94486 5268 ft 187 kts 21°
2026-05-04 13:55 37.34535 126.95197 4904 ft 193 kts 22°
2026-05-04 13:56 37.35749 126.95929 4515 ft 195 kts 22°
2026-05-04 13:56 37.36971 126.96672 4135 ft 195 kts 22°
2026-05-04 13:56 37.39180 126.98020 3981 ft 153 kts 18°
2026-05-04 13:57 37.40121 126.98044 3977 ft 131 kts 323°
2026-05-04 13:57 37.40800 126.97245 3886 ft 147 kts 319°
2026-05-04 13:58 37.43147 126.94820 3320 ft 137 kts 315°
2026-05-04 13:58 37.44477 126.93185 2956 ft 132 kts 313°
2026-05-04 13:58 37.45124 126.92371 2786 ft 131 kts 313°
2026-05-04 13:59 37.45759 126.91568 2596 ft 128 kts 312°
2026-05-04 13:59 37.46376 126.90786 2429 ft 123 kts 312°
2026-05-04 13:59 37.47564 126.89297 2107 ft 119 kts 314°
2026-05-04 14:00 37.48138 126.88572 1932 ft 112 kts 313°
2026-05-04 14:00 37.49226 126.87184 1654 ft 114 kts 313°
2026-05-04 14:00 37.49784 126.86477 1490 ft 114 kts 313°
2026-05-04 14:01 37.50318 126.85735 1340 ft 115 kts 308°
2026-05-04 14:01 37.50887 126.85014 1187 ft 116 kts 314°
2026-05-04 14:01 37.52070 126.83606 897 ft 119 kts 310°
2026-05-04 14:02 37.52645 126.82820 728 ft 124 kts 311°
2026-05-04 14:02 37.53263 126.82054 509 ft 125 kts 316°
2026-05-04 14:02 37.53869 126.81278 354 ft 124 kts 313°
2026-05-04 14:02 37.54472 126.80511 224 ft 125 kts 315°
2026-05-04 14:03 37.55113 126.79732 406 ft 138 kts 314°
2026-05-04 14:03 37.55809 126.78800 991 ft 163 kts 310°
2026-05-04 14:03 37.56675 126.77634 1789 ft 197 kts 313°
2026-05-04 14:03 37.57707 126.76408 2785 ft 208 kts 315°
2026-05-04 14:04 37.59802 126.73945 3948 ft 194 kts 315°
2026-05-04 14:04 37.60605 126.72666 3980 ft 185 kts 287°
2026-05-04 14:04 37.60447 126.71118 4186 ft 185 kts 239°
2026-05-04 14:05 37.58350 126.69011 5803 ft 198 kts 221°
2026-05-04 14:05 37.57277 126.67965 6003 ft 199 kts 221°
2026-05-04 14:05 37.56170 126.66878 6002 ft 203 kts 221°
2026-05-04 14:06 37.55047 126.65774 5999 ft 201 kts 221°
2026-05-04 14:06 37.53971 126.64717 5995 ft 197 kts 221°
2026-05-04 14:06 37.52865 126.63630 6018 ft 213 kts 221°
2026-05-04 14:06 37.51628 126.62401 6019 ft 234 kts 221°
2026-05-04 14:07 37.50332 126.61106 6009 ft 240 kts 221°
2026-05-04 14:07 37.49024 126.59796 5998 ft 240 kts 221°
2026-05-04 14:07 37.47712 126.58482 5994 ft 240 kts 221°
2026-05-04 14:07 37.46403 126.57181 5988 ft 240 kts 218°
2026-05-04 14:08 37.45406 126.56579 5983 ft 244 kts 194°
2026-05-04 14:08 37.43725 126.56781 5993 ft 248 kts 156°
2026-05-04 14:08 37.42411 126.58163 6011 ft 248 kts 131°
2026-05-04 14:08 37.41285 126.59814 6004 ft 249 kts 131°
2026-05-04 14:09 37.39022 126.63126 5991 ft 249 kts 131°
2026-05-04 14:09 37.37906 126.64763 5993 ft 249 kts 131°
2026-05-04 14:10 37.35648 126.68077 5994 ft 249 kts 131°
2026-05-04 14:10 37.34524 126.69728 5994 ft 249 kts 131°
2026-05-04 14:10 37.33398 126.71380 5996 ft 249 kts 131°
2026-05-04 14:10 37.32267 126.73038 5995 ft 248 kts 131°
2026-05-04 14:11 37.31154 126.74670 5964 ft 251 kts 131°
2026-05-04 14:11 37.28713 126.78232 5447 ft 265 kts 131°
2026-05-04 14:11 37.27555 126.79919 5210 ft 244 kts 131°
2026-05-04 14:12 37.26487 126.81472 5021 ft 227 kts 131°
2026-05-04 14:12 37.25474 126.82947 4995 ft 220 kts 131°
2026-05-04 14:12 37.24861 126.86347 4998 ft 209 kts 56°
2026-05-04 14:13 37.25927 126.87537 4868 ft 208 kts 28°
2026-05-04 14:13 37.27152 126.88468 4660 ft 207 kts 28°
2026-05-04 14:13 37.28372 126.89402 4432 ft 202 kts 28°
2026-05-04 14:13 37.29559 126.90317 4247 ft 199 kts 28°
2026-05-04 14:14 37.30741 126.91232 4071 ft 200 kts 28°
2026-05-04 14:14 37.33129 126.93093 4003 ft 202 kts 28°
2026-05-04 14:14 37.34303 126.94018 3992 ft 202 kts 28°
2026-05-04 14:15 37.36688 126.95895 4008 ft 202 kts 28°
2026-05-04 14:15 37.39040 126.97714 3993 ft 190 kts 20°
2026-05-04 14:16 37.41265 126.96858 3802 ft 180 kts 320°
2026-05-04 14:16 37.42186 126.95936 3579 ft 159 kts 317°
2026-05-04 14:17 37.43648 126.94222 3202 ft 131 kts 314°
2026-05-04 14:17 37.44308 126.93400 3023 ft 135 kts 313°
2026-05-04 14:17 37.45626 126.91735 2633 ft 134 kts 312°
2026-05-04 14:18 37.46255 126.90941 2459 ft 124 kts 312°
2026-05-04 14:18 37.47460 126.89407 2135 ft 121 kts 311°
2026-05-04 14:19 37.48658 126.87896 1812 ft 122 kts 311°
2026-05-04 14:19 37.49259 126.87134 1671 ft 121 kts 311°
2026-05-04 14:19 37.49861 126.86372 1479 ft 123 kts 311°
2026-05-04 14:19 37.50445 126.85634 1303 ft 117 kts 311°
2026-05-04 14:20 37.50992 126.84906 1154 ft 114 kts 310°
2026-05-04 14:20 37.51576 126.84194 998 ft 117 kts 314°
2026-05-04 14:20 37.52152 126.83472 852 ft 120 kts 311°
2026-05-04 14:21 37.53350 126.81947 511 ft 124 kts 313°
2026-05-04 14:21 37.53949 126.81178 355 ft 123 kts 313°
2026-05-04 14:21 37.54560 126.80414 189 ft 125 kts 314°
2026-05-04 14:21 37.55164 126.79647 58 ft 118 kts 314°
2026-05-04 14:22 37.55651 126.79031 57 ft 78 kts 315°
2026-05-04 14:22 37.55961 126.78643 56 ft 58 kts 315°
2026-05-04 14:22 37.56217 126.78391 61 ft 37 kts 340°
2026-05-04 14:22 37.56406 126.78331 62 ft 20 kts 356°
2026-05-04 14:23 37.56474 126.78352 64 ft 0 kts 26°
2026-05-04 14:23 37.56477 126.78353 64 ft 2 kts 26°
2026-05-04 14:24 37.56547 126.78433 61 ft 24 kts 45°
2026-05-04 14:24 37.56657 126.78573 59 ft 21 kts 54°
2026-05-04 14:24 37.56611 126.78703 62 ft 15 kts 133°
2026-05-04 14:24 37.56539 126.78794 62 ft 15 kts 136°
2026-05-04 14:25 37.56435 126.78921 60 ft 24 kts 135°
2026-05-04 14:25 37.56207 126.79207 61 ft 22 kts 135°
2026-05-04 14:25 37.56108 126.79332 66 ft 13 kts 135°
2026-05-04 14:26 37.56054 126.79400 66 ft 0 kts 135°
2026-05-04 14:29 37.55945 126.79571 64 ft 31 kts 107°
2026-05-04 14:30 37.55913 126.79808 66 ft 24 kts 99°
2026-05-04 14:30 37.55864 126.80001 66 ft 11 kts 135°
2026-05-04 14:30 37.55747 126.80024 59 ft 11 kts 225°
2026-05-04 14:31 37.55720 126.79989 65 ft 0 kts 225°